Location: Arrien
(43.3167°N, 0.1500°W)
Time: 23:49:17
(UTC+00:00)

Cosmos 1727 Rocket - Pass Details

Date: 15 October 2021
Orbit: 960 x 997 km, 82.9° (Epoch: 04 December)

Event Time Altitude Azimuth Distance (km) Brightness Sun altitude
Rises 17:46:14 0° 355° (N) 3,686 7.0 -6.0°
Reaches altitude 10° 17:48:50 10° 0° (N) 2,729 6.3 -6.5°
Maximum altitude 17:54:57 55° 78° (ENE) 1,154 4.1 -7.6°
Drops below altitude 10° 18:00:58 10° 156° (SSE) 2,692 6.1 -8.7°
Sets 18:03:31 0° 160° (SSE) 3,631 6.8 -9.1°
